Location: Berlin
(52.5171°N, 13.3759°E)
Time: 05:56:16
(UTC+01:00)

ISS - Pass Details

Date: 08 January 2018
Orbit: 401 x 406 km, 51.6° (Epoch: 17 January)

Event Time Altitude Azimuth Distance (km) Brightness Sun altitude
Exits shadow 05:07:54 22° 93° (E) 958 -1.2 -27.3°
Drops below altitude 10° 05:09:11 10° 91° (E) 1,467 0.0 -27.1°
Sets 05:11:16 0° 90° (E) 2,329 1.3 -26.8°
